1498114800.44,3158,19.94,74154.5,14.05,-25.61,-26.61,0,*71
1498114801.67,3159,19.94,74152.0,14.05,-24.77,-25.75,0,*70
1498114802.92,3160,19.88,74160.0,14.05,-24.41,-25.45,0,*7C
1498114804.12,3161,19.94,74160.3,14.05,-25.23,-26.39,0,*70
1498114805.39,3162,19.88,74156.5,14.03,-24.67,-25.81,0,*74
1498114806.6,3163,19.88,74158.5,14.03,-25.19,-26.45,0,*76
1498114807.82,3164,19.88,74152.8,14.03,-25.65,-26.65,0,*78
1498114809.04,3165,19.88,74132.8,14.03,-22.53,-23.39,0,*77
1498114810.26,3166,19.94,74134.0,14.05,-21.39,-22.21,0,*75
1498114811.53,3167,19.94,74136.8,14.11,-21.23,-22.17,0,*7F
1498114812.76,3168,19.94,74142.3,14.13,-22.57,-23.49,0,*78
1498114813.98,3169,19.88,74146.3,14.13,-25.97,-27.13,0,*79
1498114815.22,3170,19.88,74146.8,14.11,-26.55,-27.67,0,*7D
1498114816.42,3171,19.94,74140.5,14.09,-29.07,-30.67,0,*7B
1498114817.69,3172,19.88,74132.0,13.99,-29.39,-30.83,0,*71
1498114818.91,3173,19.88,74138.8,13.97,-30.33,-31.73,0,*72
1498114820.13,3174,19.94,74142.8,13.91,-30.83,-32.35,0,*79
1498114821.33,3175,19.88,74132.0,13.87,-30.83,-32.23,0,*78
1498114822.59,3176,19.94,74134.3,13.81,-29.57,-30.95,0,*73
1498114823.87,3177,19.94,74138.0,13.77,-28.91,-30.01,0,*7D
1498114825.12,3178,19.88,74134.0,13.75,-26.71,-28.09,0,*71
1498114826.36,3179,19.94,74150.8,13.73,-30.55,-32.01,0,*74
1498114827.59,3180,19.94,74146.3,13.67,-28.91,-29.79,0,*73
1498114828.84,3181,19.88,74148.3,13.65,-27.55,-28.79,0,*76
1498114830.09,3182,19.88,74144.8,13.65,-26.39,-27.45,0,*7E
1498114831.37,3183,19.88,74144.0,13.65,-26.93,-28.09,0,*78
1498114832.57,3184,19.88,74146.8,13.63,-26.65,-27.93,0,*7C
1498114833.82,3185,19.94,74148.5,13.59,-25.81,-26.71,0,*70
1498114835.02,3186,19.88,74148.8,13.59,-25.49,-26.65,0,*72
1498114836.27,3187,19.94,74152.0,13.59,-23.99,-24.87,0,*76
1498114837.47,3188,19.88,74154.5,13.63,-22.97,-23.79,0,*79
1498114838.72,3189,19.88,74154.5,13.63,-21.87,-22.73,0,*71
1498114839.98,3190,19.88,74158.0,13.69,-21.83,-22.63,0,*76
1498114841.22,3191,19.88,74158.8,13.71,-22.77,-23.69,0,*7D
1498114842.47,3192,19.88,74156.8,13.73,-22.07,-22.73,0,*71
1498114843.69,3193,19.88,74156.5,13.75,-20.89,-21.57,0,*77
1498114844.89,3194,19.88,74162.3,13.79,-22.07,-22.93,0,*73
1498114846.12,3195,19.88,74162.3,13.81,-22.11,-23.09,0,*70
1498114847.36,3196,19.88,74164.3,13.85,-22.87,-23.95,0,*7D
1498114848.61,3197,19.94,74170.8,13.85,-22.11,-23.19,0,*77
1498114849.86,3198,19.88,74168.0,13.89,-23.85,-25.03,0,*75
1498114851.06,3199,19.94,74160.5,13.87,-24.77,-25.87,0,*7C
1498114852.29,3200,19.88,74160.3,13.87,-23.43,-24.41,0,*74
1498114853.5,3201,19.94,74158.0,13.89,-24.57,-25.61,0,*7A
1498114854.75,3202,19.88,74152.8,13.87,-24.87,-25.75,0,*7F
1498114855.96,3203,19.94,74148.3,13.89,-22.87,-23.69,0,*7D
1498114857.19,3204,19.88,74150.3,13.89,-22.87,-23.85,0,*78
1498114858.39,3205,19.88,74154.5,13.89,-22.87,-23.75,0,*76
1498114859.62,3206,19.88,74152.3,13.89,-24.67,-25.65,0,*7A
1498114860.85,3207,19.94,74158.8,13.89,-23.89,-24.87,0,*71
1498114862.07,3208,19.88,74160.3,13.91,-22.87,-23.75,0,*72
1498114863.34,3209,19.88,74160.5,13.91,-21.83,-22.73,0,*73
1498114864.54,3210,19.88,74164.0,13.93,-22.41,-23.39,0,*7B
1498114865.76,3211,19.94,74164.3,13.97,-21.09,-21.83,0,*72
1498114866.96,3212,19.88,74160.8,13.97,-21.13,-21.93,0,*7B
1498114868.15,3213,19.88,74162.0,14.01,-21.09,-22.03,0,*73
1498114869.42,3214,19.88,74166.3,14.03,-20.83,-21.57,0,*77
1498114870.65,3215,19.88,74164.8,14.05,-20.43,-21.23,0,*7F
1498114871.87,3216,19.88,74164.3,14.11,-20.09,-20.93,0,*7D
1498114873.07,3217,19.88,74166.5,14.13,-19.95,-20.69,0,*74
1498114874.32,3218,19.94,74166.8,14.15,-19.75,-20.49,0,*71
1498114875.56,3219,19.88,74162.8,14.19,-20.89,-21.57,0,*7B
1498114876.79,3220,19.88,74162.3,14.21,-19.95,-20.73,0,*7A
1498114877.99,3221,19.88,74160.3,14.23,-19.91,-20.69,0,*76
1498114879.26,3222,19.88,74160.0,14.25,-20.15,-20.99,0,*7A
1498114880.5,3223,19.94,74162.3,14.31,-19.65,-20.39,0,*79
1498114881.74,3224,19.88,74162.3,14.37,-20.19,-21.09,0,*7B
1498114882.97,3225,19.88,74162.5,14.35,-20.15,-20.73,0,*78
1498114884.22,3226,19.88,74160.0,14.39,-19.65,-20.49,0,*73
1498114885.46,3227,19.88,74160.0,14.41,-19.81,-20.73,0,*7E
1498114886.71,3228,19.88,74162.0,14.45,-20.93,-21.87,0,*76
1498114887.93,3229,19.88,74160.5,14.47,-20.49,-21.43,0,*7A
1498114889.14,3230,19.88,74152.3,14.47,-20.35,-21.09,0,*77
1498114890.42,3231,19.88,74150.3,14.49,-21.03,-22.17,0,*70
1498114891.63,3232,19.88,74156.0,14.49,-21.39,-22.37,0,*78
1498114892.88,3233,19.88,74162.5,14.55,-20.73,-21.67,0,*7D
1498114894.1,3234,19.88,74170.3,14.55,-21.93,-22.87,0,*78
1498114895.34,3235,19.94,74170.8,14.53,-23.09,-24.21,0,*74
1498114896.58,3236,19.94,74170.8,14.53,-26.81,-28.15,0,*79
1498114897.77,3237,19.88,74166.0,14.47,-25.91,-27.07,0,*73
1498114899.01,3238,19.88,74162.0,14.45,-27.13,-28.43,0,*79
1498114900.27,3239,19.88,74160.8,14.43,-28.91,-30.39,0,*7F
1498114901.49,3240,19.88,74158.3,14.35,-28.75,-30.23,0,*71
1498114902.75,3241,19.88,74160.5,14.33,-27.99,-29.29,0,*79
1498114903.97,3242,19.88,74158.0,14.25,-28.31,-29.61,0,*7C
1498114905.2,3243,19.88,74152.8,14.21,-26.39,-27.51,0,*72
1498114906.46,3244,19.88,74150.5,14.21,-26.07,-27.23,0,*7D
1498114907.67,3245,19.88,74148.5,14.19,-24.93,-26.03,0,*7B
1498114908.89,3246,19.88,74148.5,14.17,-23.95,-24.97,0,*78
1498114910.14,3247,19.88,74150.0,14.19,-22.17,-22.97,0,*7A
1498114911.39,3248,19.88,74152.8,14.19,-22.31,-23.43,0,*79
1498114912.65,3249,19.88,74148.8,14.21,-21.87,-22.93,0,*71
1498114913.88,3250,19.88,74148.5,14.23,-22.11,-23.23,0,*7D
1498114915.1,3251,19.88,74150.3,14.25,-21.63,-22.53,0,*7A
1498114916.33,3252,19.88,74150.8,14.25,-20.93,-21.93,0,*78
1498114917.59,3253,19.94,74154.0,14.27,-21.87,-23.19,0,*7F
1498114918.82,3254,19.88,74150.5,14.31,-21.53,-22.53,0,*79
1498114920.09,3255,19.88,74154.5,14.33,-22.21,-23.33,0,*7B
1498114921.33,3256,19.88,74152.3,14.35,-23.03,-24.15,0,*7C
1498114922.54,3257,19.88,74158.0,14.35,-21.93,-22.93,0,*7E
1498114923.8,3258,19.88,74158.5,14.35,-21.53,-22.47,0,*74
1498114925.08,3259,19.88,74158.3,14.37,-21.23,-22.21,0,*70
1498114926.32,3260,19.88,74162.3,14.37,-22.41,-23.65,0,*7C
1498114927.52,3261,19.94,74162.8,14.39,-21.39,-22.37,0,*79
1498114928.76,3262,19.88,74160.5,14.41,-21.27,-22.37,0,*7A
1498114930.01,3263,19.88,74158.0,14.41,-21.39,-22.31,0,*72
1498114931.23,3264,19.88,74162.0,14.43,-22.47,-23.59,0,*72
1498114932.48,3265,19.88,74160.5,14.43,-22.47,-23.53,0,*79
1498114933.7,3266,19.88,74162.0,14.43,-23.59,-24.83,0,*7E
1498114934.91,3267,19.88,74164.3,14.43,-25.13,-26.39,0,*74
1498114936.18,3268,19.88,74164.0,14.41,-25.55,-26.77,0,*71
1498114937.38,3269,19.88,74164.3,14.39,-25.23,-26.45,0,*7F
1498114938.58,3270,19.88,74164.0,14.35,-23.75,-24.97,0,*73
1498114939.82,3271,19.88,74166.5,14.37,-23.69,-24.93,0,*79
1498114941.08,3272,19.88,74164.0,14.35,-24.21,-25.45,0,*79
1498114942.3,3273,19.88,74164.0,14.35,-24.67,-26.03,0,*7B
1498114943.54,3274,19.88,74166.5,14.35,-24.47,-25.71,0,*78
1498114944.77,3275,19.88,74162.3,14.35,-23.59,-24.87,0,*79
1498114945.98,3276,19.88,74162.8,14.33,-23.39,-24.57,0,*77
1498114947.26,3277,19.88,74166.0,14.33,-23.85,-24.71,0,*75
1498114948.48,3278,19.88,74162.8,14.31,-23.29,-24.51,0,*7C
1498114949.74,3279,19.88,74162.0,14.33,-23.75,-24.87,0,*7D
1498114950.97,3280,19.88,74164.0,14.31,-24.21,-25.39,0,*7B
1498114952.21,3281,19.88,74160.8,14.31,-23.95,-25.09,0,*71
1498114953.47,3282,19.88,74162.3,14.31,-24.71,-26.17,0,*73
1498114954.72,3283,19.88,74160.8,14.31,-23.23,-24.41,0,*73
1498114955.94,3284,19.88,74162.8,14.27,-22.97,-24.11,0,*78
1498114957.14,3285,19.94,74164.0,14.31,-23.39,-24.61,0,*7C
1498114958.33,3286,19.88,74162.5,14.31,-22.27,-23.39,0,*7B
1498114959.57,3287,19.88,74160.3,14.31,-20.59,-21.67,0,*78
1498114960.79,3288,19.88,74162.5,14.33,-19.75,-20.73,0,*75
1498114962.04,3289,19.94,74162.3,14.37,-21.27,-22.41,0,*7F
1498114963.27,3290,19.88,74158.0,14.39,-20.59,-21.67,0,*76
1498114964.53,3291,19.88,74160.0,14.41,-20.63,-21.87,0,*7F
1498114965.74,3292,19.88,74160.8,14.43,-20.25,-21.53,0,*75
1498114966.97,3293,19.94,74166.5,14.45,-21.73,-22.87,0,*7A
1498114968.19,3294,19.88,74160.8,14.47,-20.79,-21.77,0,*78
1498114969.4,3295,19.88,74164.3,14.47,-21.27,-22.67,0,*71
1498114970.62,3296,19.88,74166.0,14.49,-20.93,-22.11,0,*73
1498114971.82,3297,19.88,74164.3,14.47,-22.57,-23.79,0,*79
1498114973.02,3298,19.88,74166.0,14.53,-22.11,-23.13,0,*7D
1498114974.26,3299,19.88,74164.0,14.53,-21.67,-22.93,0,*77
1498114975.51,3300,19.88,74164.5,14.53,-22.47,-23.69,0,*73
1498114976.76,3301,19.88,74166.3,14.55,-21.63,-22.77,0,*7F
1498114978.03,3302,19.88,74162.5,14.55,-21.83,-23.03,0,*70
1498114979.28,3303,19.88,74164.5,14.55,-22.17,-23.39,0,*76
1498114980.51,3304,19.94,74168.3,14.55,-21.63,-22.93,0,*70
1498114981.73,3305,19.88,74164.3,14.59,-21.43,-22.67,0,*74
1498114982.98,3306,19.88,74168.3,14.59,-21.97,-23.13,0,*7C
1498114984.2,3307,19.88,74164.0,14.57,-22.37,-23.69,0,*77
1498114985.46,3308,19.88,74166.0,14.59,-22.17,-23.43,0,*7C
1498114986.69,3309,19.88,74166.3,14.59,-22.53,-23.79,0,*74
1498114987.94,3310,19.88,74164.3,14.59,-22.21,-23.43,0,*70
1498114989.2,3311,19.88,74166.0,14.59,-23.43,-24.71,0,*72
1498114990.44,3312,19.88,74164.3,14.57,-22.73,-24.11,0,*7B
1498114991.69,3313,19.88,74160.5,14.59,-22.07,-23.19,0,*78
1498114992.94,3314,19.88,74162.0,14.59,-22.47,-23.79,0,*7D
1498114994.19,3315,19.88,74166.0,14.59,-22.77,-23.89,0,*70
1498114995.41,3316,19.88,74166.8,14.57,-23.19,-24.35,0,*74
1498114996.66,3317,19.88,74170.0,14.61,-23.03,-24.41,0,*78
1498114997.88,3318,19.88,74170.0,14.57,-22.97,-24.15,0,*7F
1498114999.11,3319,19.88,74166.8,14.57,-21.09,-22.31,0,*7A
1498115000.39,3320,19.88,74166.5,14.59,-21.23,-22.31,0,*76
1498115001.58,3321,19.94,74166.0,14.61,-21.43,-22.63,0,*7D
1498115002.86,3322,19.88,74160.0,14.63,-21.03,-22.17,0,*7B
1498115004.08,3323,19.88,74160.0,14.63,-21.09,-22.27,0,*73
1498115005.3,3324,19.88,74166.0,14.63,-22.41,-23.75,0,*7D
1498115006.55,3325,19.94,74166.8,14.67,-23.23,-24.51,0,*7C
1498115007.77,3326,19.88,74162.8,14.65,-25.49,-26.77,0,*71
1498115009.02,3327,19.88,74160.0,14.61,-24.15,-25.55,0,*7F
1498115010.25,3328,19.88,74154.5,14.61,-23.75,-25.03,0,*72
1498115011.5,3329,19.88,74154.5,14.61,-22.21,-23.33,0,*76
1498115012.71,3330,19.94,74158.0,14.61,-22.97,-24.31,0,*76
1498115013.96,3331,19.88,74154.8,14.61,-23.49,-24.87,0,*78
1498115015.22,3332,19.88,74156.8,14.59,-24.25,-25.61,0,*74
1498115016.43,3333,19.94,74156.8,14.57,-24.35,-25.61,0,*7A
1498115017.72,3334,19.88,74150.0,14.59,-24.25,-25.71,0,*73
1498115018.97,3335,19.88,74152.8,14.57,-24.15,-25.45,0,*78
1498115020.17,3336,19.88,74154.5,14.53,-22.57,-23.89,0,*79
1498115021.42,3337,19.88,74158.5,14.55,-22.17,-23.39,0,*71
1498115022.62,3338,19.88,74156.5,14.57,-21.77,-22.87,0,*7D
1498115023.85,3339,19.88,74156.5,14.59,-21.43,-22.63,0,*7F
1498115025.07,3340,19.88,74156.5,14.61,-20.73,-21.97,0,*70
1498115026.29,3341,19.94,74162.3,14.61,-21.23,-22.37,0,*7C
1498115027.52,3342,19.88,74160.3,14.63,-21.93,-23.09,0,*7A
1498115028.77,3343,19.88,74162.3,14.63,-21.09,-22.17,0,*76
1498115029.98,3344,19.88,74160.3,14.65,-20.49,-21.73,0,*73
1498115031.21,3345,19.88,74164.3,14.67,-20.89,-22.07,0,*7C
1498115032.45,3346,19.88,74166.5,14.67,-21.27,-22.57,0,*7F
1498115033.67,3347,19.88,74164.5,14.71,-21.43,-22.63,0,*7C
1498115034.93,3348,19.88,74164.0,14.75,-19.99,-21.23,0,*7C
1498115036.17,3349,19.88,74160.8,14.75,-20.15,-21.17,0,*74
1498115037.37,3350,19.88,74160.5,14.77,-21.13,-22.27,0,*79
1498115038.58,3351,19.88,74160.5,14.79,-20.29,-21.43,0,*7F
1498115039.81,3352,19.88,74162.5,14.81,-19.41,-20.43,0,*7E
1498115041.06,3353,19.88,74158.3,14.83,-19.17,-20.15,0,*7D
1498115042.29,3354,19.88,74162.5,14.85,-19.23,-20.39,0,*75
1498115043.52,3355,19.88,74162.0,14.89,-20.69,-21.97,0,*79
1498115044.75,3356,19.88,74164.3,14.89,-21.53,-22.67,0,*7E
1498115046.0,3357,19.88,74162.8,14.89,-21.23,-22.47,0,*7A
1498115047.27,3358,19.88,74162.8,14.91,-19.81,-21.03,0,*7C
1498115048.47,3359,19.88,74160.8,14.93,-19.95,-21.09,0,*70
1498115049.73,3360,19.88,74162.5,14.93,-19.57,-20.49,0,*71
1498115050.98,3361,19.88,74160.0,15.01,-19.61,-20.79,0,*7C
1498115052.17,3362,19.88,74160.0,15.01,-20.29,-21.47,0,*75
1498115053.4,3363,19.88,74160.5,15.03,-20.93,-22.11,0,*77
1498115054.66,3364,19.88,74160.8,15.03,-21.03,-22.11,0,*78
1498115055.91,3365,19.88,74164.3,15.03,-20.63,-21.87,0,*72
1498115057.17,3366,19.88,74162.8,15.03,-20.43,-21.67,0,*7D
1498115058.37,3367,19.88,74162.0,15.05,-20.93,-22.11,0,*75
1498115059.63,3368,19.88,74164.3,15.07,-20.59,-21.83,0,*76
1498115060.85,3369,19.88,74162.0,15.07,-20.09,-21.17,0,*7F
1498115062.07,3370,19.88,74166.8,15.09,-19.75,-20.83,0,*74
1498115063.3,3371,19.88,74164.8,15.11,-19.71,-20.93,0,*79
1498115064.54,3372,19.88,74164.0,15.15,-20.15,-21.17,0,*7B
1498115065.78,3373,19.88,74160.0,15.15,-20.05,-21.03,0,*7E
1498115067.03,3374,19.88,74162.5,15.15,-19.75,-21.03,0,*74
1498115068.3,3375,19.88,74158.0,15.15,-20.15,-21.33,0,*7A
1498115069.58,3376,19.88,74156.8,15.21,-19.61,-20.83,0,*7D
1498115070.78,3377,19.88,74158.0,15.23,-20.93,-22.07,0,*77
1498115072.01,3378,19.88,74156.5,15.23,-20.93,-22.17,0,*79
1498115073.22,3379,19.88,74156.3,15.23,-19.95,-20.93,0,*7A
1498115074.48,3380,19.88,74156.3,15.23,-19.27,-20.19,0,*77
1498115075.71,3381,19.94,74158.8,15.27,-19.81,-20.89,0,*77
1498115076.94,3382,19.88,74154.3,15.29,-19.17,-20.25,0,*73
1498115078.19,3383,19.88,74154.8,15.31,-20.49,-21.67,0,*7D
1498115079.44,3384,19.88,74152.3,15.33,-19.65,-20.63,0,*79
1498115080.68,3385,19.88,74152.8,15.33,-19.71,-20.89,0,*79
1498115081.91,3386,19.88,74150.5,15.35,-20.39,-21.53,0,*7C
1498115083.13,3387,19.88,74152.3,15.35,-21.23,-22.41,0,*77
1498115084.35,3388,19.88,74150.5,15.35,-21.03,-22.11,0,*7F
1498115085.63,3389,19.88,74154.0,15.37,-21.03,-22.17,0,*7A
1498115086.86,3390,19.88,74150.5,15.35,-22.03,-23.23,0,*75
1498115088.06,3391,19.88,74152.0,15.35,-20.59,-21.77,0,*7A
1498115089.31,3392,19.88,74150.5,15.37,-20.43,-21.53,0,*76
1498115090.53,3393,19.88,74154.0,15.37,-20.39,-21.47,0,*7F
1498115091.75,3394,19.94,74152.8,15.37,-20.93,-22.11,0,*78
1498115092.94,3395,19.88,74152.3,15.39,-21.17,-22.41,0,*7F
1498115094.16,3396,19.88,74152.5,15.39,-22.67,-23.85,0,*71
1498115095.38,3397,19.88,74154.5,15.39,-20.99,-22.27,0,*7A
1498115096.58,3398,19.88,74154.5,15.39,-20.63,-21.77,0,*76
1498115097.8,3399,19.88,74154.5,15.39,-21.27,-22.53,0,*73
1498115099.02,3400,19.88,74158.0,15.43,-21.09,-22.31,0,*71
1498115100.25,3401,19.88,74154.8,15.43,-20.93,-22.17,0,*76
1498115101.47,3402,19.88,74158.3,15.43,-21.13,-22.31,0,*78
1498115102.71,3403,19.88,74156.0,15.43,-20.35,-21.53,0,*7B
1498115103.93,3404,19.88,74158.3,15.43,-20.19,-21.43,0,*73
1498115105.19,3405,19.88,74156.8,15.45,-19.81,-21.03,0,*7B
1498115106.41,3406,19.88,74158.0,15.47,-20.79,-22.03,0,*74
1498115107.68,3407,19.88,74160.0,15.51,-20.49,-21.57,0,*73
1498115108.88,3408,19.88,74160.0,15.49,-19.91,-21.17,0,*7E
1498115110.13,3409,19.88,74162.3,15.51,-20.49,-21.63,0,*7A
1498115111.38,3410,19.88,74162.0,15.51,-21.33,-22.57,0,*7A
1498115112.62,3411,19.88,74166.3,15.51,-22.07,-23.33,0,*7C
1498115113.87,3412,19.88,74164.3,15.51,-21.47,-22.77,0,*79
1498115115.13,3413,19.88,74168.0,15.51,-20.35,-21.57,0,*7D
1498115116.36,3414,19.88,74166.0,15.51,-20.25,-21.47,0,*7A
1498115117.61,3415,19.88,74166.3,15.55,-19.47,-20.53,0,*75
1498115118.85,3416,19.88,74168.8,15.57,-19.23,-20.39,0,*7A
1498115120.09,3417,19.88,74168.0,15.57,-20.15,-21.33,0,*7F
1498115121.31,3418,19.94,74178.5,15.59,-22.57,-23.89,0,*79
1498115122.57,3419,19.88,74180.8,15.57,-24.11,-25.75,0,*77
1498115123.8,3420,19.88,74176.3,15.53,-23.99,-25.39,0,*76
1498115125.06,3421,19.88,74172.5,15.53,-24.41,-25.97,0,*71
1498115126.28,3422,19.88,74166.8,15.49,-24.61,-25.97,0,*7B
1498115127.53,3423,19.88,74160.8,15.49,-25.45,-26.97,0,*7E
1498115128.77,3424,19.88,74158.8,15.45,-25.35,-26.93,0,*76
1498115129.99,3425,19.88,74164.5,15.43,-25.13,-26.55,0,*7F
1498115131.24,3426,19.88,74166.0,15.35,-24.83,-26.17,0,*73
1498115132.49,3427,19.88,74164.5,15.37,-24.57,-26.17,0,*79
1498115133.72,3428,19.88,74164.5,15.35,-24.83,-26.23,0,*7A
1498115134.94,3429,19.88,74156.0,15.31,-25.13,-26.71,0,*70
1498115136.19,3430,19.88,74154.3,15.29,-24.51,-25.97,0,*7D
1498115137.39,3431,19.88,74154.0,15.27,-25.19,-26.65,0,*71
1498115138.63,3432,19.88,74152.3,15.25,-25.45,-26.87,0,*75
1498115139.84,3433,19.88,74152.3,15.23,-25.87,-27.29,0,*79
1498115141.09,3434,19.94,74152.8,15.17,-27.03,-28.47,0,*70
1498115142.28,3435,19.88,74152.3,15.13,-28.53,-30.11,0,*75
1498115143.56,3436,19.88,74152.8,15.11,-27.39,-28.91,0,*76
1498115144.8,3437,19.88,74154.3,15.07,-25.65,-26.97,0,*73
1498115146.02,3438,19.88,74158.5,15.05,-25.23,-26.71,0,*74
1498115147.23,3439,19.88,74154.0,15.05,-24.47,-25.87,0,*7C
1498115148.45,3440,19.88,74150.5,15.03,-24.93,-26.39,0,*7B
1498115149.68,3441,19.88,74152.0,15.01,-26.07,-27.39,0,*76
1498115150.88,3442,19.88,74152.3,15.01,-24.97,-26.39,0,*7F
1498115152.1,3443,19.88,74148.8,14.95,-25.65,-26.87,0,*7B
1498115153.34,3444,19.88,74154.8,14.95,-23.75,-25.13,0,*75
1498115154.57,3445,19.88,74160.5,14.95,-24.51,-25.87,0,*78
1498115155.82,3446,19.88,74154.5,14.93,-26.17,-27.39,0,*7A
1498115157.07,3447,19.88,74150.5,14.91,-22.11,-23.23,0,*74
1498115158.27,3448,19.88,74150.3,14.93,-25.19,-26.49,0,*7F
1498115159.52,3449,19.88,74148.8,14.91,-25.49,-26.77,0,*74
1498115160.74,3450,19.88,74150.0,14.91,-25.23,-26.65,0,*73
1498115161.98,3451,19.88,74150.3,14.87,-23.39,-24.67,0,*78
1498115163.18,3452,19.88,74152.0,14.89,-20.93,-21.93,0,*78
1498115164.37,3453,19.88,74150.3,14.93,-20.63,-21.73,0,*73
1498115165.59,3454,19.88,74150.0,14.99,-20.05,-21.13,0,*78
1498115166.81,3455,19.88,74148.8,14.99,-21.43,-22.57,0,*79
1498115168.03,3456,19.88,74152.3,15.01,-22.97,-24.15,0,*70
1498115169.28,3457,19.88,74156.5,15.01,-23.29,-24.67,0,*70
1498115170.53,3458,19.88,74158.3,15.01,-24.11,-25.45,0,*72
1498115171.77,3459,19.88,74160.3,14.99,-22.53,-23.65,0,*77
1498115172.97,3460,19.88,74158.3,15.01,-21.39,-22.41,0,*75
1498115174.22,3461,19.88,74156.5,15.03,-21.03,-22.11,0,*7A
1498115175.47,3462,19.88,74158.8,15.03,-22.03,-23.29,0,*70
1498115176.7,3463,19.88,74160.0,15.03,-21.43,-22.63,0,*79
1498115177.92,3464,19.88,74158.3,15.07,-21.47,-22.63,0,*7E
1498115179.14,3465,19.88,74156.5,15.07,-21.39,-22.57,0,*71
1498115180.4,3466,19.88,74154.0,15.07,-21.67,-22.63,0,*7E
1498115181.65,3467,19.88,74154.0,15.11,-21.03,-22.03,0,*7C
1498115182.92,3468,19.88,74156.0,15.11,-21.27,-22.17,0,*70
1498115184.12,3469,19.88,74158.0,15.13,-21.17,-22.11,0,*76
1498115185.31,3470,19.88,74160.0,15.13,-20.05,-21.13,0,*7D
1498115186.55,3471,19.88,74160.5,15.15,-20.05,-20.99,0,*79
1498115187.82,3472,19.88,74160.5,15.21,-19.31,-20.39,0,*7A
1498115189.07,3473,19.88,74162.5,15.23,-19.41,-20.49,0,*79
1498115190.33,3474,19.88,74162.8,15.25,-20.59,-21.67,0,*76
1498115191.55,3475,19.88,74160.3,15.27,-22.03,-23.29,0,*70
1498115192.75,3476,19.88,74162.8,15.27,-23.09,-24.51,0,*70
1498115194.03,3477,19.88,74160.5,15.25,-23.29,-24.71,0,*73
1498115195.24,3478,19.88,74164.3,15.27,-24.05,-25.49,0,*7D
1498115196.47,3479,19.88,74166.8,15.21,-23.13,-24.47,0,*75
1498115197.72,3480,19.88,74168.8,15.21,-23.49,-24.93,0,*75
1498115198.97,3481,19.88,74168.0,15.17,-23.85,-25.13,0,*78
1498115200.24,3482,19.88,74170.8,15.17,-23.23,-24.41,0,*71
1498115201.49,3483,19.88,74168.8,15.17,-22.77,-23.79,0,*7C
1498115202.75,3484,19.88,74168.0,15.17,-22.77,-23.89,0,*74
1498115204.0,3485,19.88,74168.8,15.17,-22.47,-23.59,0,*7B
1498115205.27,3486,19.88,74170.8,15.21,-22.21,-23.53,0,*77
1498115206.54,3487,19.88,74166.8,15.17,-22.73,-23.85,0,*7F
1498115207.79,3488,19.88,74164.5,15.21,-22.87,-24.15,0,*70
1498115209.03,3489,19.94,74168.3,15.17,-22.57,-23.69,0,*75
1498115210.28,3490,19.88,74162.3,15.21,-22.67,-23.95,0,*78
1498115211.54,3491,19.88,74164.3,15.17,-22.17,-22.93,0,*7C
1498115212.79,3492,19.88,74162.0,15.21,-22.03,-23.19,0,*7C
1498115214.02,3493,19.88,74156.8,15.21,-21.47,-22.57,0,*75
1498115215.24,3494,19.88,74158.3,15.21,-21.43,-22.67,0,*75
1498115216.5,3495,19.88,74158.0,15.25,-21.87,-23.09,0,*71
1498115217.75,3496,19.88,74156.5,15.25,-21.87,-22.93,0,*70
1498115218.98,3497,19.88,74154.3,15.23,-21.87,-23.09,0,*75
1498115220.23,3498,19.88,74156.5,15.25,-22.37,-23.33,0,*7D
1498115221.46,3499,19.88,74158.0,15.27,-20.53,-21.63,0,*79
1498115222.68,3500,19.88,74158.0,15.27,-20.73,-21.67,0,*7E
1498115223.91,3501,19.88,74154.5,15.27,-20.43,-21.53,0,*7B
1498115225.14,3502,19.88,74154.0,15.31,-20.59,-21.53,0,*74
1498115226.38,3503,19.88,74156.3,15.33,-20.49,-21.43,0,*77
1498115227.64,3504,19.88,74158.3,15.33,-21.53,-22.53,0,*78
1498115228.88,3505,19.88,74156.0,15.33,-22.07,-23.19,0,*74
1498115230.12,3506,19.88,74158.0,15.37,-20.89,-21.97,0,*73
1498115231.35,3507,19.88,74156.8,15.35,-20.73,-21.67,0,*7A
1498115232.59,3508,19.88,74160.5,15.37,-20.09,-21.23,0,*7A
1498115233.79,3509,19.88,74158.5,15.39,-21.47,-22.37,0,*78
1498115235.04,3510,19.88,74156.5,15.37,-21.77,-22.77,0,*79
1498115236.25,3511,19.88,74160.5,15.39,-22.93,-24.15,0,*7D
1498115237.51,3512,19.88,74156.3,15.37,-21.87,-22.93,0,*7E
1498115238.72,3513,19.88,74162.3,15.39,-21.63,-22.73,0,*75
1498115239.91,3514,19.88,74156.5,15.39,-22.87,-24.05,0,*7C
1498115241.15,3515,19.88,74160.3,15.37,-22.27,-23.29,0,*70
1498115242.38,3516,19.88,74160.8,15.37,-20.43,-21.39,0,*70
1498115243.58,3517,19.88,74160.0,15.43,-19.91,-20.93,0,*76
1498115244.81,3518,19.88,74164.3,15.43,-19.13,-20.19,0,*71
1498115246.03,3519,19.88,74164.0,15.47,-21.03,-22.11,0,*74
1498115247.29,3520,19.88,74162.8,15.49,-21.67,-22.77,0,*72
1498115248.54,3521,19.88,74166.8,15.47,-22.17,-23.23,0,*79
1498115249.74,3522,19.88,74168.5,15.47,-21.47,-22.57,0,*7E
1498115250.99,3523,19.88,74168.8,15.47,-21.53,-22.73,0,*7C
1498115252.23,3524,19.88,74168.3,15.47,-22.77,-23.95,0,*77
1498115253.46,3525,19.88,74170.3,15.47,-21.83,-22.97,0,*7D
1498115254.69,3526,19.88,74172.3,15.47,-21.17,-22.17,0,*7B
1498115255.91,3527,19.88,74170.5,15.47,-20.53,-21.63,0,*7B
1498115257.1,3528,19.88,74174.3,15.49,-21.13,-22.11,0,*79
1498115258.35,3529,19.88,74174.5,15.51,-19.81,-20.73,0,*77
1498115259.57,3530,19.88,74168.8,15.55,-19.07,-20.09,0,*78
1498115260.8,3531,19.88,74174.0,15.55,-18.79,-19.71,0,*74
1498115262.02,3532,19.88,74168.8,15.55,-19.07,-19.99,0,*79
1498115263.27,3533,19.88,74172.3,15.59,-18.89,-19.95,0,*7F
1498115264.53,3534,19.88,74172.0,15.63,-19.37,-20.35,0,*75
1498115265.78,3535,19.88,74170.8,15.67,-19.41,-20.39,0,*7D
1498115267.02,3536,19.88,74170.0,15.67,-19.95,-20.89,0,*7C
1498115268.24,3537,19.88,74174.8,15.69,-19.91,-20.83,0,*7D
1498115269.46,3538,19.88,74172.3,15.69,-19.95,-20.99,0,*7D
1498115270.71,3539,19.88,74172.5,15.71,-20.43,-21.33,0,*75
1498115271.95,3540,19.88,74174.3,15.73,-20.35,-21.33,0,*78
1498115273.21,3541,19.88,74172.3,15.75,-20.15,-21.03,0,*7E
1498115274.46,3542,19.88,74170.5,15.75,-20.25,-21.23,0,*7C
1498115275.65,3543,19.88,74174.5,15.77,-19.91,-20.73,0,*7E
1498115276.89,3544,19.88,74174.5,15.77,-22.77,-23.99,0,*7E
1498115278.14,3545,19.88,74172.0,15.75,-24.87,-26.07,0,*76
1498115279.38,3546,19.88,74170.8,15.71,-26.45,-27.61,0,*7C
1498115280.63,3547,19.88,74170.3,15.67,-25.75,-26.87,0,*73
1498115281.85,3548,19.88,74168.8,15.63,-25.91,-27.13,0,*7E
1498115283.08,3549,19.88,74164.0,15.57,-25.97,-27.13,0,*7E
1498115284.28,3550,19.88,74160.5,15.57,-26.39,-27.67,0,*72
1498115285.51,3551,19.88,74160.8,15.53,-26.97,-28.31,0,*7F
1498115286.75,3552,19.88,74164.5,15.49,-27.29,-28.63,0,*74
1498115287.97,3553,19.88,74162.5,15.47,-26.65,-27.83,0,*73
1498115289.19,3554,19.94,74166.3,15.43,-26.55,-27.77,0,*78
1498115290.47,3555,19.88,74164.0,15.37,-26.97,-28.21,0,*78
1498115291.74,3556,19.88,74166.5,15.33,-27.23,-28.63,0,*77
1498115293.02,3557,19.88,74166.5,15.29,-26.93,-27.99,0,*7D
1498115294.28,3558,19.88,74162.0,15.29,-27.61,-28.85,0,*7C
1498115295.47,3559,19.88,74152.0,15.23,-26.61,-27.93,0,*7E
1498115296.72,3560,19.88,74152.8,15.21,-27.77,-29.13,0,*76
1498115297.95,3561,19.88,74150.3,15.13,-28.79,-30.33,0,*7D
1498115299.2,3562,19.88,74132.0,15.09,-28.63,-30.01,0,*7F
1498115300.42,3563,19.88,74132.8,15.05,-28.97,-30.51,0,*7C
1498115301.66,3564,19.88,74134.5,15.01,-29.89,-31.45,0,*75